FW8345 Weather Reports


Display with metric or nautical units.
time (UTC)temp
F
wind
direction
speed
MPH
gust
MPH
rain 1hr
in
rain 24hr
in
rain mn
in
humidity
%
barometer
mb
20260505213049 48 86 8.0 14.0 0.00 0.00 0.00 79 1015.9
20260505212537 48 94 8.0 14.0 0.00 0.00 0.00 79 1016.0
20260505212038 48 67 6.0 14.0 0.00 0.00 0.00 78 1016.0
20260505211605 48 79 7.0 15.0 0.00 0.00 0.00 79 1016.0
20260505211043 49 86 8.0 15.0 0.00 0.00 0.00 79 1015.9
20260505210537 49 72 9.0 15.0 0.00 0.00 0.00 79 1015.9
20260505210046 49 96 8.0 13.0 0.00 0.00 0.00 79 1015.9
20260505205538 49 69 6.0 13.0 0.00 0.00 0.00 79 1015.9
20260505205038 49 82 3.0 10.0 0.00 0.00 0.00 78 1015.9
20260505204553 49 77 4.0 12.0 0.00 0.00 0.00 78 1015.9
20260505204037 49 44 6.0 13.0 0.00 0.00 0.00 78 1015.9
20260505203539 49 98 7.0 13.0 0.00 0.00 0.00 78 1015.9
20260505203049 49 82 7.0 11.0 0.00 0.00 0.00 78 1015.9
20260505202541 49 56 7.0 12.0 0.00 0.00 0.00 78 1015.9
20260505202040 50 53 6.0 12.0 0.00 0.00 0.00 78 1015.8
20260505201557 50 89 5.0 12.0 0.00 0.00 0.00 77 1015.9
20260505201038 50 83 7.0 12.0 0.00 0.00 0.00 77 1015.7
20260505200537 50 93 3.0 9.0 0.00 0.00 0.00 77 1015.7
20260505200050 50 58 4.0 9.0 0.00 0.00 0.00 76 1015.6
20260505195537 51 71 2.0 12.0 0.00 0.00 0.00 75 1015.6
20260505195037 51 68 5.0 12.0 0.00 0.00 0.00 74 1015.5
20260505194609 51 51 4.0 10.0 0.00 0.00 0.00 72 1015.6
20260505194037 51 5 2.0 10.0 0.00 0.00 0.00 72 1015.4
20260505193538 51 350 3.0 10.0 0.00 0.00 0.00 72 1015.3
20260505193055 51 340 4.0 10.0 0.00 0.00 0.00 71 1015.3
20260505192538 51 16 3.0 10.0 0.00 0.00 0.00 71 1015.1
20260505192037 52 36 3.0 9.0 0.00 0.00 0.00 70 1015.1
20260505191553 52 360 1.0 8.0 0.00 0.00 0.00 69 1015.2
20260505191037 52 349 2.0 9.0 0.00 0.00 0.00 68 1015.2
20260505190537 52 360 4.0 9.0 0.00 0.00 0.00 67 1015.1
20260505190049 52 5 2.0 9.0 0.00 0.00 0.00 67 1015.1
20260505185537 52 333 2.0 10.0 0.00 0.00 0.00 67 1015.0
20260505185038 52 340 4.0 11.0 0.00 0.00 0.00 66 1015.0
20260505184554 52 28 4.0 12.0 0.00 0.00 0.00 67 1015.0
20260505184038 52 22 5.0 12.0 0.00 0.00 0.00 67 1015.0
20260505183537 52 20 5.0 10.0 0.00 0.00 0.00 67 1014.9
20260505183046 52 0 4.0 10.0 0.00 0.00 0.00 68 1014.9
20260505182537 52 341 1.0 10.0 0.00 0.00 0.00 67 1014.8
20260505182040 52 0 4.0 13.0 0.00 0.00 0.00 67 1014.8
20260505181555 52 352 3.0 13.0 0.00 0.00 0.00 66 1014.9
20260505181037 53 327 1.0 12.0 0.00 0.00 0.00 67 1014.9
20260505180540 53 14 3.0 12.0 0.00 0.00 0.00 67 1014.9
20260505180046 53 25 5.0 12.0 0.00 0.00 0.00 67 1014.9
20260505175538 53 5 4.0 14.0 0.00 0.00 0.00 66 1014.8
20260505175038 53 355 4.0 14.0 0.00 0.00 0.00 66 1014.7
20260505174555 54 13 4.0 11.0 0.00 0.00 0.00 67 1014.8
20260505174038 54 45 4.0 11.0 0.00 0.00 0.00 68 1014.9
20260505173537 54 343 3.0 13.0 0.00 0.00 0.00 68 1014.9
20260505173051 55 323 7.0 13.0 0.00 0.00 0.00 68 1014.9
20260505172537 55 301 4.0 14.0 0.00 0.00 0.00 66 1015.0
20260505172037 55 0 4.0 14.0 0.00 0.00 0.00 64 1015.0
20260505171548 55 296 6.0 13.0 0.00 0.00 0.00 65 1014.9
20260505171040 55 317 3.0 11.0 0.00 0.00 0.00 65 1015.0
20260505170536 55 329 4.0 11.0 0.00 0.00 0.00 64 1015.0
20260505170048 55 340 4.0 13.0 0.00 0.00 0.00 65 1014.9
20260505165536 55 355 2.0 13.0 0.00 0.00 0.00 64 1014.9
20260505165036 56 339 5.0 13.0 0.00 0.00 0.00 64 1014.9
20260505164613 56 350 3.0 11.0 0.00 0.00 0.00 64 1014.8
20260505164036 56 299 2.0 9.0 0.00 0.00 0.00 65 1014.7
20260505163538 56 318 3.0 12.0 0.00 0.00 0.00 65 1014.7
20260505163053 56 331 5.0 13.0 0.00 0.00 0.00 64 1014.8
20260505162536 56 360 4.0 13.0 0.00 0.00 0.00 65 1014.9
20260505162037 56 11 5.0 13.0 0.00 0.00 0.00 66 1014.8
20260505161550 56 315 5.0 12.0 0.00 0.00 0.00 66 1014.7
20260505161037 55 322 5.0 12.0 0.00 0.00 0.00 66 1014.7
20260505160537 55 336 4.0 14.0 0.00 0.00 0.00 66 1014.8
20260505153126 56 296 8.0 16.0 0.00 0.00 0.00 68 1015.1
20260505152536 56 333 6.0 14.0 0.00 0.00 0.00 67 1014.9
20260505152036 56 281 6.0 13.0 0.00 0.00 0.00 65 1015.0
20260505151549 56 311 5.0 13.0 0.00 0.00 0.00 65 1014.9
20260505151037 56 322 3.0 12.0 0.00 0.00 0.00 64 1014.9
20260505150537 57 304 4.0 15.0 0.00 0.00 0.00 66 1014.9
20260505140536 57 327 6.0 14.0 0.00 0.00 0.00 63 1015.1
20260505130110 58 265 6.0 15.0 0.00 0.00 0.00 61 1015.2
20260505125038 61 290 5.0 14.0 0.00 0.00 0.00 57 1015.2
20260505124600 62 355 7.0 14.0 0.00 0.00 0.00 58 1015.2
20260505124038 59 355 3.0 9.0 0.00 0.00 0.00 59 1015.1
20260505123535 59 321 4.0 11.0 0.00 0.00 0.00 61 1015.1
20260505123048 58 329 3.0 13.0 0.00 0.00 0.00 66 1015.2
20260505122539 57 321 7.0 13.0 0.00 0.00 0.00 62 1015.2
20260505122037 58 20 6.0 13.0 0.00 0.00 0.00 62 1015.2
20260505121551 58 360 3.0 13.0 0.00 0.00 0.00 61 1015.2
20260505121038 57 335 5.0 13.0 0.00 0.00 0.00 59 1015.3
20260505120537 57 322 4.0 13.0 0.00 0.00 0.00 61 1015.3
20260505120105 57 287 6.0 15.0 0.00 0.00 0.00 61 1015.2
20260505115537 57 319 3.0 15.0 0.00 0.00 0.00 61 1015.2
20260505115041 57 318 5.0 14.0 0.00 0.00 0.00 61 1015.2
20260505114549 57 321 5.0 14.0 0.00 0.00 0.00 60 1015.4
20260505114038 57 352 6.0 14.0 0.00 0.00 0.00 60 1015.3
20260505113540 58 297 6.0 14.0 0.00 0.00 0.00 58 1015.3
20260505113052 60 9 4.0 14.0 0.00 0.00 0.00 58 1015.3
20260505112540 61 323 4.0 9.0 0.00 0.00 0.00 57 1015.3
20260505112037 58 351 4.0 9.0 0.00 0.00 0.00 59 1015.4
20260505111547 57 5 1.0 10.0 0.00 0.00 0.00 57 1015.3
20260505111035 58 360 2.0 10.0 0.00 0.00 0.00 63 1015.4
20260505110537 55 51 4.0 12.0 0.00 0.00 0.00 64 1015.5
20260505102037 56 360 4.0 14.0 0.00 0.00 0.00 62 1015.6
20260505101547 56 318 6.0 13.0 0.00 0.00 0.00 64 1015.6
20260505101037 56 311 5.0 12.0 0.00 0.00 0.00 64 1015.7
20260505100537 56 344 6.0 12.0 0.00 0.00 0.00 64 1015.7
20260505100048 56 352 2.0 10.0 0.00 0.00 0.00 65 1015.7
20260505095537 57 329 4.0 10.0 0.00 0.00 0.00 61 1015.7
20260505095038 56 10 2.0 11.0 0.00 0.00 0.00 65 1015.7
20260505094546 55 40 4.0 15.0 0.00 0.00 0.00 68 1015.7
20260505094038 55 349 5.0 15.0 0.00 0.00 0.00 65 1015.7
20260505093538 55 5 6.0 11.0 0.00 0.00 0.00 67 1015.8
20260505093050 54 355 4.0 9.0 0.00 0.00 0.00 66 1015.8
20260505092539 55 5 2.0 10.0 0.00 0.00 0.00 69 1015.8
20260505092038 54 355 3.0 13.0 0.00 0.00 0.00 68 1015.8
20260505091550 54 345 4.0 13.0 0.00 0.00 0.00 67 1015.9
20260505091040 54 329 4.0 13.0 0.00 0.00 0.00 68 1015.8
20260505090537 55 355 5.0 11.0 0.00 0.00 0.00 66 1015.9
20260505090044 55 307 5.0 14.0 0.00 0.00 0.00 64 1015.9
20260505085538 57 342 5.0 14.0 0.00 0.00 0.00 63 1015.9
20260505085040 58 339 6.0 14.0 0.00 0.00 0.00 62 1015.9
20260505084548 60 296 8.0 14.0 0.00 0.00 0.00 63 1015.9
20260505084038 61 0 6.0 14.0 0.00 0.00 0.00 63 1015.9
20260505083540 61 338 3.0 15.0 0.00 0.00 0.00 68 1015.8
20260505083049 59 352 5.0 15.0 0.00 0.00 0.00 65 1015.9
20260505082538 58 360 6.0 14.0 0.00 0.00 0.00 63 1015.9
20260505082037 58 5 3.0 13.0 0.00 0.00 0.00 66 1015.9
20260505081552 58 350 5.0 13.0 0.00 0.00 0.00 67 1016.0
20260505081037 58 5 5.0 16.0 0.00 0.00 0.00 69 1016.0
20260505080538 58 311 7.0 16.0 0.00 0.00 0.00 69 1016.1
20260505080047 57 355 6.0 16.0 0.00 0.00 0.00 70 1015.9
20260505075540 57 360 7.0 14.0 0.00 0.00 0.00 71 1015.9
20260505075038 57 342 7.0 14.0 0.00 0.00 0.00 68 1016.1
20260505074543 57 286 6.0 14.0 0.00 0.00 0.00 69 1016.0
20260505074037 57 267 5.0 13.0 0.00 0.00 0.00 72 1016.0
20260505073538 56 302 4.0 13.0 0.00 0.00 0.00 71 1016.0
20260505073050 56 355 6.0 13.0 0.00 0.00 0.00 74 1016.0
20260505072538 55 17 6.0 13.0 0.00 0.00 0.00 75 1015.8
20260505072041 55 329 4.0 12.0 0.00 0.00 0.00 77 1016.0
20260505071552 54 342 6.0 12.0 0.00 0.00 0.00 78 1016.1
20260505071037 53 342 4.0 9.0 0.00 0.00 0.00 80 1016.1
20260505070540 52 345 2.0 7.0 0.00 0.00 0.00 81 1016.1
20260505070046 52 348 1.0 7.0 0.00 0.00 0.00 80 1016.0
20260505065538 52 5 2.0 9.0 0.00 0.00 0.00 79 1015.9
20260505065037 53 337 1.0 9.0 0.00 0.00 0.00 78 1016.0
20260505064549 53 315 3.0 9.0 0.00 0.00 0.00 79 1016.1
20260505064037 54 288 1.0 8.0 0.00 0.00 0.00 81 1016.1
20260505063538 54 315 3.0 8.0 0.00 0.00 0.00 82 1016.1
20260505063045 53 311 4.0 9.0 0.00 0.00 0.00 83 1016.0
20260505062538 53 327 4.0 9.0 0.00 0.00 0.00 83 1015.9
20260505062038 52 301 3.0 9.0 0.00 0.00 0.00 84 1015.9
20260505061552 52 292 3.0 9.0 0.00 0.00 0.00 85 1015.8
20260505061037 51 323 4.0 9.0 0.00 0.00 0.00 86 1015.7
20260505060541 51 282 3.0 8.0 0.00 0.00 0.00 88 1015.8
20260505060053 50 296 2.0 7.0 0.00 0.00 0.00 90 1015.8
20260505055539 49 309 3.0 8.0 0.00 0.00 0.00 91 1015.8
20260505055037 48 307 3.0 8.0 0.00 0.00 0.00 91 1015.8
20260505054556 48 344 3.0 8.0 0.00 0.00 0.00 92 1015.8
20260505054037 47 293 4.0 8.0 0.00 0.00 0.00 92 1016.0
20260505053534 47 311 3.0 7.0 0.00 0.00 0.00 93 1016.0
20260505053056 46 313 2.0 7.0 0.00 0.00 0.00 93 1016.1
20260505052538 46 313 2.0 8.0 0.00 0.00 0.00 93 1015.9
20260505052038 45 306 3.0 8.0 0.00 0.00 0.00 93 1015.9
20260505051546 44 311 3.0 7.0 0.00 0.00 0.00 93 1015.9
20260505051039 43 299 3.0 7.0 0.00 0.00 0.00 93 1016.0
20260505050537 43 287 3.0 7.0 0.00 0.00 0.00 92 1016.0
20260505041552 42 329 2.0 10.0 0.00 0.00 0.00 91 1015.9
20260505041038 42 290 4.0 10.0 0.00 0.00 0.00 91 1015.8
20260505040541 42 286 6.0 9.0 0.00 0.00 0.00 91 1015.8
20260505040054 42 293 5.0 9.0 0.00 0.00 0.00 91 1015.8
20260505035538 42 275 5.0 9.0 0.00 0.00 0.00 91 1015.7
20260505035037 42 289 4.0 8.0 0.00 0.00 0.00 91 1015.7
20260505034546 42 314 3.0 8.0 0.00 0.00 0.00 90 1015.8
20260505034037 42 295 2.0 7.0 0.00 0.00 0.00 90 1015.7
20260505033537 42 294 3.0 9.0 0.00 0.00 0.00 90 1015.7
20260505033048 42 266 4.0 9.0 0.00 0.00 0.00 90 1015.8
20260505032537 42 288 5.0 9.0 0.00 0.00 0.00 90 1015.7
20260505032038 42 286 4.0 9.0 0.00 0.00 0.00 90 1015.8
20260505031545 42 319 6.0 10.0 0.00 0.00 0.00 90 1015.7
20260505031038 42 300 6.0 10.0 0.00 0.00 0.00 90 1015.7
20260505030603 42 296 5.0 10.0 0.00 0.00 0.00 90 1015.8
20260505030048 42 329 5.0 10.0 0.00 0.00 0.00 90 1015.8
20260505025540 42 309 4.0 9.0 0.00 0.00 0.00 90 1015.7
20260505025037 42 293 5.0 11.0 0.00 0.00 0.00 89 1015.7
20260505024547 43 299 6.0 11.0 0.00 0.00 0.00 90 1015.8
20260505024037 43 302 6.0 11.0 0.00 0.00 0.00 89 1015.7
20260505023537 43 312 5.0 11.0 0.00 0.00 0.00 89 1015.8
20260505023056 43 341 5.0 11.0 0.00 0.00 0.00 89 1015.9
20260505022538 43 272 4.0 11.0 0.00 0.00 0.00 89 1015.8
20260505022110 43 321 4.0 10.0 0.00 0.00 0.00 89 1015.8
20260505021545 43 327 4.0 9.0 0.00 0.00 0.00 89 1015.9
20260505021037 44 300 4.0 10.0 0.00 0.00 0.00 89 1015.9
20260505020540 44 335 5.0 10.0 0.00 0.00 0.00 89 1016.0
20260505020046 44 287 7.0 10.0 0.00 0.00 0.00 89 1016.0
20260505015537 44 329 5.0 10.0 0.00 0.00 0.00 89 1015.9
20260505015035 44 310 4.0 10.0 0.00 0.00 0.00 88 1015.9
20260505014550 45 289 6.0 10.0 0.00 0.00 0.00 88 1016.0
20260505014036 45 316 5.0 10.0 0.00 0.00 0.00 88 1016.0
20260505013537 45 301 4.0 12.0 0.00 0.00 0.00 88 1016.1
20260505013047 46 320 4.0 12.0 0.00 0.00 0.00 88 1016.2
20260505012538 46 317 5.0 12.0 0.00 0.00 0.00 89 1016.2
20260505012041 46 326 5.0 11.0 0.00 0.00 0.00 89 1016.3
20260505011552 47 304 6.0 12.0 0.00 0.00 0.00 89 1016.3
20260505011041 47 317 6.0 12.0 0.00 0.00 0.00 89 1016.3
20260505010537 47 302 5.0 10.0 0.00 0.00 0.00 89 1016.3
20260505010051 47 311 3.0 8.0 0.00 0.00 0.00 89 1016.3
20260505005537 47 300 4.0 9.0 0.00 0.00 0.00 90 1016.4
20260505005038 48 303 5.0 9.0 0.00 0.00 0.00 90 1016.3
20260505004548 48 332 4.0 9.0 0.00 0.00 0.00 90 1016.4
20260505004037 48 299 5.0 10.0 0.00 0.00 0.00 90 1016.5
20260505003540 48 303 5.0 10.0 0.00 0.00 0.00 90 1016.5
20260505003046 48 315 5.0 9.0 0.00 0.00 0.00 90 1016.5
20260505002537 48 290 5.0 9.0 0.00 0.00 0.00 90 1016.5
20260505002037 48 286 4.0 9.0 0.00 0.00 0.00 91 1016.5
20260505001547 48 298 4.0 9.0 0.00 0.00 0.00 91 1016.5
20260505001037 48 300 4.0 10.0 0.00 0.00 0.00 91 1016.5
20260505000540 49 279 5.0 10.0 0.00 0.00 0.00 91 1016.6
20260505000058 49 332 3.0 8.0 0.00 0.00 0.00 91 1016.7
20260504235538 49 314 4.0 8.0 0.00 0.00 0.00 91 1016.8
20260504235038 49 314 4.0 9.0 0.00 0.00 0.00 91 1016.8
20260504234546 49 323 3.0 10.0 0.00 0.00 0.00 91 1016.8
20260504234037 49 323 4.0 10.0 0.00 0.00 0.00 91 1016.8
20260504233542 49 279 5.0 10.0 0.00 0.00 0.00 91 1016.9
20260504233050 49 296 3.0 9.0 0.00 0.00 0.00 91 1016.9
20260504232538 49 290 4.0 9.0 0.00 0.00 0.00 91 1016.9
20260504232037 49 309 4.0 9.0 0.00 0.00 0.00 91 1017.0
20260504231548 49 272 4.0 8.0 0.00 0.00 0.00 91 1016.9
20260504231037 48 297 3.0 9.0 0.00 0.00 0.00 91 1017.0
20260504230538 48 338 4.0 9.0 0.00 0.00 0.00 91 1017.0
20260504230047 48 304 5.0 9.0 0.00 0.00 0.00 91 1017.1
20260504225536 48 307 5.0 9.0 0.00 0.00 0.00 91 1017.0
20260504225041 48 275 4.0 8.0 0.00 0.00 0.00 91 1017.0
20260504224550 48 288 4.0 9.0 0.00 0.00 0.00 90 1017.0
20260504224037 48 281 4.0 9.0 0.00 0.00 0.00 90 1017.0
20260504223538 47 288 4.0 9.0 0.00 0.00 0.00 90 1017.0
20260504223048 47 290 3.0 6.0 0.00 0.00 0.00 89 1017.1
20260504222536 47 298 1.0 3.0 0.00 0.00 0.00 88 1017.1
20260504222039 47 298 0.0 0.0 0.00 0.00 0.00 88 1017.1
20260504221551 47 0 0.0 0.0 0.00 0.00 0.00 88 1017.1
20260504221037 48 0 0.0 2.0 0.00 0.00 0.00 88 1017.2
20260504220536 48 0 0.0 2.0 0.00 0.00 0.00 88 1017.2
20260504220110 48 298 0.0 4.0 0.00 0.00 0.00 88 1017.3
20260504215538 48 298 1.0 6.0 0.00 0.00 0.00 87 1017.2
20260504215040 48 295 3.0 6.0 0.00 0.00 0.00 87 1017.2
20260504214553 48 288 2.0 4.0 0.00 0.00 0.00 87 1017.2
20260504214034 48 323 1.0 3.0 0.00 0.00 0.00 86 1017.2
20260504213538 49 0 0.0 0.0 0.00 0.00 0.00 86 1017.2